This is the latest recevied weather packets stored in our database for station/object K5MGY. If no packets are shown the sender has not sent any weather packets the latest 10 day(s).
| Time | Temp. | Humidity | Pressure | Rain* | Wind** | Luminosity | Snow |
|---|---|---|---|---|---|---|---|
| 1788622701 | 33.33° C | 53% | 1039.1 hPa | 0 mm | - | 464 W/m² | - |
| 1788622398 | 33.33° C | 54% | 1038.9 hPa | 0 mm | - | 453 W/m² | - |
| 1788622097 | 32.78° C | 55% | 1038.8 hPa | 0 mm | - | 439 W/m² | - |
| 1788621796 | 32.22° C | 56% | 1038.9 hPa | 0 mm | - | 424 W/m² | - |
| 1788621492 | 32.78° C | 55% | 1038.9 hPa | 0 mm | - | 410 W/m² | - |
| 1788621188 | 32.22° C | 55% | 1038.8 hPa | 0 mm | - | 397 W/m² | - |
| 1788620888 | 32.22° C | 55% | 1038.8 hPa | 0 mm | - | 379 W/m² | - |
| 1788620587 | 32.22° C | 56% | 1038.7 hPa | 0 mm | - | 364 W/m² | - |
| 1788620284 | 32.22° C | 56% | 1038.7 hPa | 0 mm | - | 348 W/m² | - |
| 1788619979 | 31.67° C | 57% | 1038.8 hPa | 0 mm | - | 334 W/m² | - |
| 1788619678 | 30.56° C | 60% | 1038.8 hPa | 0 mm | - | 318 W/m² | - |
| 1788619374 | 30.56° C | 61% | 1038.8 hPa | 0 mm | - | 301 W/m² | - |
| 1788619073 | 30.56° C | 61% | 1038.9 hPa | 0 mm | - | 284 W/m² | - |
| 1788618773 | 30.56° C | 62% | 1039 hPa | 0 mm | - | 270 W/m² | - |
| 1788618471 | 30.56° C | 62% | 1039 hPa | 0 mm | - | 253 W/m² | - |
| 1788618166 | 30.56° C | 63% | 1038.9 hPa | 0 mm | - | 238 W/m² | - |
| 1788617862 | 30° C | 64% | 1038.9 hPa | 0 mm | - | 214 W/m² | - |
| 1788617558 | 30° C | 67% | 1038.8 hPa | 0 mm | - | 207 W/m² | - |
| 1788617253 | 29.44° C | 67% | 1039 hPa | 0 mm | - | 190 W/m² | - |
| 1788616953 | 29.44° C | 69% | 1038.7 hPa | 0 mm | - | 176 W/m² | - |
| 1788616652 | 28.89° C | 69% | 1038.7 hPa | 0 mm | - | 28 W/m² | - |
| 1788616348 | 28.89° C | 71% | 1038.7 hPa | 0 mm | - | 145 W/m² | - |
| 1788616047 | 28.33° C | 72% | 1038.7 hPa | 0 mm | - | 135 W/m² | - |
| 1788615747 | 27.22° C | 75% | 1038.6 hPa | 0 mm | - | 78 W/m² | - |
| 1788615442 | 26.67° C | 76% | 1038.6 hPa | 0 mm | - | 94 W/m² | - |
* Rain latest hour (hover to see other rain measurements)
** Current wind speed in m/s (hover to see current wind gust speed)